DAL1270 KPDX-KSLC

Flight info

Callsign DAL1270
Flight time 1h 28m
Altitude 35000
Route WHAMY5 IMB J15 BOI BYI SKEES6
Aircraft A321/M-SDE3FGHIRWY/LB1

Departure

Time 2026-05-06 22:49
Airport Portland International Airport (KPDX)

Arrival

Time 2026-05-07 00:17
Airport Salt Lake City International Airport (KSLC)
Time Latitude Longitude Altitude Speed Heading
2026-05-06 22:20 45.59141 -122.59473 29 ft 0 kts 228°
2026-05-06 22:28 45.59157 -122.59521 30 ft 0 kts 195°
2026-05-06 22:37 45.59159 -122.59520 29 ft 2 kts 195°
2026-05-06 22:37 45.59185 -122.59509 30 ft 4 kts 200°
2026-05-06 22:38 45.59204 -122.59498 31 ft 4 kts 207°
2026-05-06 22:38 45.59225 -122.59481 31 ft 4 kts 221°
2026-05-06 22:38 45.59231 -122.59457 31 ft 4 kts 294°
2026-05-06 22:38 45.59219 -122.59425 31 ft 4 kts 300°
2026-05-06 22:39 45.59205 -122.59391 30 ft 4 kts 299°
2026-05-06 22:39 45.59198 -122.59372 29 ft 0 kts 298°
2026-05-06 22:42 45.59211 -122.59407 30 ft 9 kts 300°
2026-05-06 22:42 45.59253 -122.59512 31 ft 13 kts 299°
2026-05-06 22:43 45.59297 -122.59620 30 ft 12 kts 308°
2026-05-06 22:43 45.59361 -122.59621 30 ft 10 kts 68°
2026-05-06 22:43 45.59335 -122.59509 31 ft 17 kts 119°
2026-05-06 22:43 45.59271 -122.59343 31 ft 19 kts 120°
2026-05-06 22:44 45.59208 -122.59180 32 ft 18 kts 119°
2026-05-06 22:44 45.59147 -122.59025 32 ft 18 kts 119°
2026-05-06 22:44 45.59081 -122.58855 32 ft 24 kts 119°
2026-05-06 22:44 45.58998 -122.58643 31 ft 24 kts 119°
2026-05-06 22:45 45.58917 -122.58434 30 ft 24 kts 119°
2026-05-06 22:45 45.58837 -122.58231 32 ft 23 kts 119°
2026-05-06 22:45 45.58760 -122.58034 32 ft 22 kts 119°
2026-05-06 22:45 45.58685 -122.57842 31 ft 22 kts 119°
2026-05-06 22:46 45.58612 -122.57654 32 ft 21 kts 119°
2026-05-06 22:46 45.58540 -122.57471 31 ft 21 kts 119°
2026-05-06 22:46 45.58470 -122.57291 31 ft 20 kts 119°
2026-05-06 22:46 45.58403 -122.57117 31 ft 20 kts 120°
2026-05-06 22:47 45.58359 -122.57008 31 ft 19 kts 119°
2026-05-06 22:47 45.58305 -122.56868 30 ft 14 kts 119°
2026-05-06 22:47 45.58274 -122.56745 31 ft 13 kts 75°
2026-05-06 22:47 45.58343 -122.56685 31 ft 12 kts 358°
2026-05-06 22:48 45.58388 -122.56756 31 ft 5 kts 300°
2026-05-06 22:48 45.58391 -122.56764 31 ft 0 kts 300°
2026-05-06 22:48 45.58413 -122.56820 31 ft 29 kts 300°
2026-05-06 22:48 45.58636 -122.57393 31 ft 99 kts 299°
2026-05-06 22:49 45.59064 -122.58493 31 ft 152 kts 299°
2026-05-06 22:49 45.59624 -122.59949 299 ft 172 kts 299°
2026-05-06 22:49 45.60174 -122.61462 971 ft 171 kts 297°
2026-05-06 22:49 45.60704 -122.62974 1717 ft 169 kts 297°
2026-05-06 22:50 45.61246 -122.64502 2151 ft 181 kts 294°
2026-05-06 22:50 45.61604 -122.66306 2462 ft 197 kts 284°
2026-05-06 22:50 45.62130 -122.68195 2693 ft 216 kts 300°
2026-05-06 22:50 45.62929 -122.70150 2935 ft 242 kts 300°
2026-05-06 22:51 45.63810 -122.72304 3461 ft 256 kts 300°
2026-05-06 22:51 45.64707 -122.74507 4310 ft 257 kts 300°
2026-05-06 22:51 45.65607 -122.76722 5191 ft 258 kts 300°
2026-05-06 22:51 45.66459 -122.78988 5995 ft 260 kts 291°
2026-05-06 22:52 45.66889 -122.81496 6809 ft 261 kts 275°
2026-05-06 22:52 45.66803 -122.84093 7574 ft 265 kts 260°
2026-05-06 22:52 45.66293 -122.86637 8343 ft 268 kts 255°
2026-05-06 22:52 45.65715 -122.89178 9109 ft 271 kts 249°
2026-05-06 22:53 45.64577 -122.91345 9820 ft 281 kts 220°
2026-05-06 22:53 45.62749 -122.92492 10306 ft 303 kts 192°
2026-05-06 22:53 45.60548 -122.92314 10472 ft 333 kts 172°
2026-05-06 22:53 45.58255 -122.91509 10716 ft 352 kts 166°
2026-05-06 22:54 45.56006 -122.89912 11246 ft 365 kts 146°
2026-05-06 22:54 45.54144 -122.87403 11857 ft 373 kts 131°
2026-05-06 22:54 45.52698 -122.84296 12471 ft 380 kts 117°
2026-05-06 22:54 45.51605 -122.80899 13107 ft 384 kts 115°
2026-05-06 22:55 45.50501 -122.77404 13723 ft 389 kts 115°
2026-05-06 22:55 45.49388 -122.73874 14288 ft 393 kts 115°
2026-05-06 22:55 45.48267 -122.70296 14868 ft 396 kts 115°
2026-05-06 22:55 45.47143 -122.66694 15450 ft 399 kts 115°
2026-05-06 22:56 45.46011 -122.63062 16028 ft 403 kts 115°
2026-05-06 22:56 45.44868 -122.59405 16611 ft 406 kts 115°
2026-05-06 22:56 45.43713 -122.55720 17164 ft 409 kts 115°
2026-05-06 22:56 45.42550 -122.52002 17732 ft 413 kts 115°
2026-05-06 22:57 45.41378 -122.48260 18289 ft 416 kts 115°
2026-05-06 22:57 45.40195 -122.44488 18785 ft 419 kts 115°
2026-05-06 22:57 45.39001 -122.40681 19239 ft 423 kts 115°
2026-05-06 22:57 45.37800 -122.36850 19690 ft 425 kts 115°
2026-05-06 22:58 45.36589 -122.32999 20172 ft 428 kts 115°
2026-05-06 22:58 45.35369 -122.29132 20626 ft 431 kts 115°
2026-05-06 22:58 45.34136 -122.25226 21076 ft 434 kts 115°
2026-05-06 22:58 45.32878 -122.21252 21522 ft 437 kts 114°
2026-05-06 22:59 45.31639 -122.17351 21954 ft 440 kts 114°
2026-05-06 22:59 45.30374 -122.13371 22398 ft 444 kts 114°
2026-05-06 22:59 45.29082 -122.09311 22834 ft 447 kts 114°
2026-05-06 22:59 45.27810 -122.05330 23227 ft 450 kts 114°
2026-05-06 23:00 45.26511 -122.01272 23626 ft 453 kts 114°
2026-05-06 23:00 45.25208 -121.97184 24016 ft 455 kts 113°
2026-05-06 23:00 45.24000 -121.93013 24372 ft 457 kts 110°
2026-05-06 23:00 45.22895 -121.88757 24728 ft 459 kts 109°
2026-05-06 23:01 45.21852 -121.84465 25072 ft 462 kts 108°
2026-05-06 23:01 45.20821 -121.80144 25438 ft 464 kts 108°
2026-05-06 23:01 45.19771 -121.75799 25784 ft 466 kts 108°
2026-05-06 23:01 45.18694 -121.71454 26093 ft 469 kts 109°
2026-05-06 23:02 45.17582 -121.67094 26411 ft 471 kts 109°
2026-05-06 23:02 45.16446 -121.62722 26733 ft 473 kts 109°
2026-05-06 23:02 45.15300 -121.58350 27066 ft 475 kts 109°
2026-05-06 23:02 45.14160 -121.54005 27376 ft 477 kts 109°
2026-05-06 23:03 45.13002 -121.49587 27698 ft 480 kts 109°
2026-05-06 23:03 45.11824 -121.45088 27984 ft 483 kts 109°
2026-05-06 23:03 45.10659 -121.40621 28265 ft 485 kts 109°
2026-05-06 23:03 45.09490 -121.36132 28551 ft 487 kts 109°
2026-05-06 23:04 45.08312 -121.31620 28855 ft 489 kts 109°
2026-05-06 23:04 45.07145 -121.27159 29142 ft 491 kts 109°
2026-05-06 23:04 45.05941 -121.22561 29411 ft 493 kts 109°
2026-05-06 23:04 45.04764 -121.18072 29708 ft 494 kts 108°
2026-05-06 23:05 45.03564 -121.13513 29975 ft 496 kts 109°
2026-05-06 23:05 45.02354 -121.08930 30199 ft 497 kts 109°
2026-05-06 23:05 45.01139 -121.04342 30424 ft 499 kts 109°
2026-05-06 23:05 44.99919 -120.99747 30702 ft 500 kts 109°
2026-05-06 23:06 44.98696 -120.95151 31066 ft 498 kts 109°
2026-05-06 23:06 44.97476 -120.90577 31431 ft 497 kts 109°
2026-05-06 23:06 44.96256 -120.86017 31805 ft 496 kts 109°
2026-05-06 23:06 44.95037 -120.81470 32181 ft 495 kts 108°
2026-05-06 23:07 44.93819 -120.76925 32501 ft 495 kts 109°
2026-05-06 23:07 44.92599 -120.72378 32852 ft 494 kts 109°
2026-05-06 23:07 44.91381 -120.67851 33200 ft 493 kts 108°
2026-05-06 23:07 44.90163 -120.63333 33569 ft 492 kts 108°
2026-05-06 23:08 44.88950 -120.58826 33933 ft 491 kts 109°
2026-05-06 23:08 44.87737 -120.54325 34252 ft 490 kts 108°
2026-05-06 23:08 44.86525 -120.49844 34539 ft 489 kts 108°
2026-05-06 23:08 44.85311 -120.45370 34842 ft 488 kts 109°
2026-05-06 23:09 44.84095 -120.40899 35009 ft 487 kts 108°
2026-05-06 23:09 44.81684 -120.32078 35049 ft 480 kts 108°
2026-05-06 23:10 44.79304 -120.23388 35049 ft 479 kts 108°
2026-05-06 23:10 44.76904 -120.14639 35044 ft 480 kts 108°
2026-05-06 23:11 44.74490 -120.05868 35047 ft 481 kts 108°
2026-05-06 23:11 44.72063 -119.97098 35048 ft 481 kts 108°
2026-05-06 23:12 44.69633 -119.88337 35043 ft 481 kts 108°
2026-05-06 23:12 44.67193 -119.79581 35046 ft 481 kts 108°
2026-05-06 23:13 44.64741 -119.70832 35048 ft 481 kts 109°
2026-05-06 23:13 44.62235 -119.62101 35048 ft 482 kts 109°
2026-05-06 23:14 44.59677 -119.53422 35069 ft 481 kts 109°
2026-05-06 23:14 44.57124 -119.44747 35057 ft 481 kts 109°
2026-05-06 23:15 44.54578 -119.36063 35053 ft 481 kts 109°
2026-05-06 23:15 44.52018 -119.27390 35052 ft 481 kts 109°
2026-05-06 23:16 44.49452 -119.18722 35049 ft 481 kts 109°
2026-05-06 23:16 44.46876 -119.10054 35052 ft 481 kts 109°
2026-05-06 23:17 44.44293 -119.01406 35053 ft 482 kts 109°
2026-05-06 23:17 44.41708 -118.92769 35053 ft 482 kts 110°
2026-05-06 23:18 44.39125 -118.84122 35087 ft 482 kts 109°
2026-05-06 23:18 44.36542 -118.75537 35085 ft 482 kts 110°
2026-05-06 23:19 44.33930 -118.66910 35080 ft 482 kts 110°
2026-05-06 23:19 44.31309 -118.58288 35079 ft 482 kts 110°
2026-05-06 23:20 44.28692 -118.49666 35082 ft 482 kts 110°
2026-05-06 23:20 44.26062 -118.41036 35080 ft 482 kts 110°
2026-05-06 23:21 44.23428 -118.32426 35071 ft 482 kts 110°
2026-05-06 23:21 44.20787 -118.23829 35087 ft 482 kts 110°
2026-05-06 23:22 44.18131 -118.15248 35071 ft 482 kts 110°
2026-05-06 23:22 44.15479 -118.06676 35069 ft 481 kts 110°
2026-05-06 23:23 44.12825 -117.98124 35066 ft 481 kts 110°
2026-05-06 23:23 44.10175 -117.89590 35067 ft 480 kts 110°
2026-05-06 23:24 44.07531 -117.81122 35075 ft 480 kts 110°
2026-05-06 23:24 44.04868 -117.72613 35062 ft 480 kts 110°
2026-05-06 23:25 44.02193 -117.64104 35064 ft 480 kts 110°
2026-05-06 23:25 43.99511 -117.55601 35069 ft 481 kts 110°
2026-05-06 23:26 43.96817 -117.47098 35059 ft 481 kts 110°
2026-05-06 23:26 43.94118 -117.38609 35059 ft 481 kts 110°
2026-05-06 23:27 43.91411 -117.30119 35056 ft 480 kts 110°
2026-05-06 23:27 43.88712 -117.21642 35057 ft 480 kts 110°
2026-05-06 23:28 43.86004 -117.13179 35060 ft 480 kts 110°
2026-05-06 23:28 43.83283 -117.04737 35064 ft 480 kts 110°
2026-05-06 23:29 43.80554 -116.96301 35072 ft 480 kts 110°
2026-05-06 23:29 43.77843 -116.87925 35064 ft 480 kts 110°
2026-05-06 23:30 43.75173 -116.79678 35063 ft 480 kts 110°
2026-05-06 23:30 43.72428 -116.71254 35064 ft 480 kts 110°
2026-05-06 23:31 43.69677 -116.62838 35067 ft 480 kts 110°
2026-05-06 23:31 43.66925 -116.54437 35068 ft 480 kts 110°
2026-05-06 23:32 43.64164 -116.46048 35068 ft 479 kts 110°
2026-05-06 23:32 43.61418 -116.37728 35080 ft 479 kts 110°
2026-05-06 23:33 43.58655 -116.29356 35071 ft 480 kts 110°
2026-05-06 23:33 43.56328 -116.22344 35094 ft 480 kts 111°
2026-05-06 23:34 43.53392 -116.14061 35089 ft 482 kts 114°
2026-05-06 23:34 43.50125 -116.06039 35084 ft 483 kts 117°
2026-05-06 23:35 43.46757 -115.98040 35080 ft 483 kts 116°
2026-05-06 23:35 43.43450 -115.90006 35074 ft 482 kts 116°
2026-05-06 23:36 43.40198 -115.81938 35063 ft 482 kts 115°
2026-05-06 23:36 43.36950 -115.73876 35072 ft 482 kts 115°
2026-05-06 23:37 43.33670 -115.65837 35068 ft 482 kts 116°
2026-05-06 23:37 43.30368 -115.57816 35072 ft 482 kts 116°
2026-05-06 23:38 43.27065 -115.49793 35071 ft 482 kts 116°
2026-05-06 23:38 43.23785 -115.41827 35072 ft 482 kts 116°
2026-05-06 23:39 43.20477 -115.33823 35072 ft 482 kts 116°
2026-05-06 23:39 43.17171 -115.25824 35071 ft 482 kts 116°
2026-05-06 23:40 43.13853 -115.17830 35068 ft 483 kts 116°
2026-05-06 23:40 43.10526 -115.09841 35092 ft 483 kts 116°
2026-05-06 23:41 43.07186 -115.01852 35080 ft 484 kts 116°
2026-05-06 23:41 43.03839 -114.93863 35089 ft 485 kts 116°
2026-05-06 23:42 43.00508 -114.85915 35102 ft 485 kts 116°
2026-05-06 23:42 42.97145 -114.77924 35109 ft 485 kts 116°
2026-05-06 23:43 42.93778 -114.69945 35112 ft 485 kts 117°
2026-05-06 23:43 42.90400 -114.61976 35112 ft 485 kts 117°
2026-05-06 23:44 42.87020 -114.54022 35109 ft 485 kts 117°
2026-05-06 23:44 42.83639 -114.46068 35138 ft 485 kts 117°
2026-05-06 23:45 42.80253 -114.38132 35134 ft 485 kts 117°
2026-05-06 23:45 42.76855 -114.30205 35083 ft 485 kts 117°
2026-05-06 23:46 42.73458 -114.22291 35076 ft 484 kts 117°
2026-05-06 23:46 42.70057 -114.14371 35079 ft 485 kts 117°
2026-05-06 23:47 42.66644 -114.06465 35088 ft 485 kts 117°
2026-05-06 23:47 42.63224 -113.98570 35101 ft 485 kts 117°
2026-05-06 23:48 42.59804 -113.90681 35119 ft 485 kts 117°
2026-05-06 23:48 42.55699 -113.83444 35115 ft 490 kts 134°
2026-05-06 23:49 42.50830 -113.76962 35125 ft 491 kts 133°
2026-05-06 23:49 42.45977 -113.70448 35114 ft 491 kts 133°
2026-05-06 23:50 42.41115 -113.63927 35100 ft 492 kts 133°
2026-05-06 23:50 42.36239 -113.57420 34995 ft 493 kts 133°
2026-05-06 23:50 42.33792 -113.54158 34742 ft 493 kts 133°
2026-05-06 23:51 42.31340 -113.50903 34495 ft 493 kts 133°
2026-05-06 23:51 42.28887 -113.47661 34261 ft 493 kts 133°
2026-05-06 23:51 42.26437 -113.44427 34009 ft 493 kts 133°
2026-05-06 23:51 42.23982 -113.41185 33767 ft 494 kts 133°
2026-05-06 23:52 42.21531 -113.37941 33516 ft 494 kts 133°
2026-05-06 23:52 42.19075 -113.34688 33239 ft 494 kts 133°
2026-05-06 23:52 42.16628 -113.31447 32902 ft 492 kts 133°
2026-05-06 23:52 42.14193 -113.28229 32336 ft 489 kts 133°
2026-05-06 23:53 42.11767 -113.25034 31782 ft 486 kts 133°
2026-05-06 23:53 42.09381 -113.21899 31243 ft 484 kts 133°
2026-05-06 23:53 42.06978 -113.18746 30697 ft 481 kts 133°
2026-05-06 23:53 42.04585 -113.15612 30159 ft 479 kts 133°
2026-05-06 23:54 42.02204 -113.12496 29558 ft 476 kts 133°
2026-05-06 23:54 41.99843 -113.09407 29071 ft 470 kts 132°
2026-05-06 23:54 41.97507 -113.06353 28526 ft 467 kts 133°
2026-05-06 23:54 41.95191 -113.03329 28010 ft 462 kts 133°
2026-05-06 23:55 41.92896 -113.00334 27501 ft 458 kts 133°
2026-05-06 23:55 41.90617 -112.97362 27010 ft 454 kts 133°
2026-05-06 23:55 41.88359 -112.94417 26522 ft 450 kts 133°
2026-05-06 23:55 41.86125 -112.91507 26030 ft 446 kts 133°
2026-05-06 23:56 41.83913 -112.88629 25586 ft 441 kts 133°
2026-05-06 23:56 41.81722 -112.85779 25121 ft 437 kts 133°
2026-05-06 23:56 41.79549 -112.82960 24683 ft 433 kts 133°
2026-05-06 23:56 41.77394 -112.80171 24240 ft 429 kts 133°
2026-05-06 23:57 41.75254 -112.77405 23804 ft 426 kts 133°
2026-05-06 23:57 41.73127 -112.74661 23285 ft 423 kts 133°
2026-05-06 23:57 41.71019 -112.71943 22843 ft 418 kts 133°
2026-05-06 23:57 41.68944 -112.69260 22405 ft 413 kts 133°
2026-05-06 23:58 41.66891 -112.66606 21974 ft 409 kts 133°
2026-05-06 23:58 41.64848 -112.63980 21527 ft 407 kts 133°
2026-05-06 23:58 41.62807 -112.61359 21103 ft 406 kts 133°
2026-05-06 23:58 41.60778 -112.58747 20684 ft 404 kts 133°
2026-05-06 23:59 41.58767 -112.56153 20258 ft 401 kts 133°
2026-05-06 23:59 41.56762 -112.53572 19848 ft 399 kts 133°
2026-05-06 23:59 41.54767 -112.51007 19258 ft 400 kts 133°
2026-05-06 23:59 41.52757 -112.48431 18784 ft 400 kts 134°
2026-05-07 00:00 41.50715 -112.45926 18336 ft 398 kts 135°
2026-05-07 00:00 41.48638 -112.43489 17798 ft 397 kts 136°
2026-05-07 00:00 41.46537 -112.41081 17198 ft 397 kts 136°
2026-05-07 00:00 41.45130 -112.39534 16922 ft 395 kts 141°
2026-05-07 00:01 41.41953 -112.37104 16337 ft 393 kts 153°
2026-05-07 00:01 41.39500 -112.35530 15893 ft 390 kts 153°
2026-05-07 00:01 41.37090 -112.33965 15480 ft 380 kts 153°
2026-05-07 00:01 41.34774 -112.32448 15074 ft 371 kts 153°
2026-05-07 00:02 41.32455 -112.30924 14662 ft 362 kts 153°
2026-05-07 00:02 41.30255 -112.29477 14272 ft 354 kts 153°
2026-05-07 00:02 41.28066 -112.28041 13869 ft 347 kts 153°
2026-05-07 00:02 41.25921 -112.26639 13446 ft 340 kts 153°
2026-05-07 00:03 41.23820 -112.25271 13065 ft 332 kts 153°
2026-05-07 00:03 41.21770 -112.23941 12819 ft 328 kts 153°
2026-05-07 00:03 41.19657 -112.22567 12728 ft 345 kts 153°
2026-05-07 00:03 41.17489 -112.21160 12611 ft 346 kts 153°
2026-05-07 00:04 41.15360 -112.19779 12356 ft 336 kts 153°
2026-05-07 00:04 41.13277 -112.18428 12256 ft 332 kts 153°
2026-05-07 00:04 41.11200 -112.17081 12184 ft 332 kts 153°
2026-05-07 00:04 41.09126 -112.15734 12094 ft 332 kts 154°
2026-05-07 00:05 41.06966 -112.14658 11961 ft 332 kts 166°
2026-05-07 00:05 41.04702 -112.14092 11837 ft 331 kts 171°
2026-05-07 00:05 41.02434 -112.13610 11697 ft 330 kts 171°
2026-05-07 00:05 41.00183 -112.13128 11567 ft 328 kts 171°
2026-05-07 00:06 40.97925 -112.12645 11440 ft 328 kts 170°
2026-05-07 00:06 40.95668 -112.12157 11304 ft 328 kts 170°
2026-05-07 00:06 40.93419 -112.11671 11180 ft 328 kts 170°
2026-05-07 00:06 40.91165 -112.11187 11046 ft 327 kts 170°
2026-05-07 00:07 40.88922 -112.10747 10989 ft 326 kts 172°
2026-05-07 00:07 40.86662 -112.10429 10997 ft 327 kts 174°
2026-05-07 00:07 40.82142 -112.09949 11007 ft 327 kts 175°
2026-05-07 00:08 40.79871 -112.09712 11005 ft 328 kts 175°
2026-05-07 00:08 40.77589 -112.09465 11002 ft 328 kts 175°
2026-05-07 00:08 40.75337 -112.09211 11005 ft 319 kts 175°
2026-05-07 00:09 40.71273 -112.08737 11021 ft 301 kts 175°
2026-05-07 00:09 40.69259 -112.08500 11019 ft 282 kts 175°
2026-05-07 00:09 40.67315 -112.08275 11031 ft 279 kts 175°
2026-05-07 00:09 40.65422 -112.08060 10939 ft 267 kts 175°
2026-05-07 00:10 40.58197 -112.07237 9460 ft 242 kts 175°
2026-05-07 00:11 40.56568 -112.06809 9065 ft 236 kts 155°
2026-05-07 00:11 40.55270 -112.05591 8900 ft 229 kts 128°
2026-05-07 00:11 40.54474 -112.03820 8798 ft 224 kts 106°
2026-05-07 00:11 40.54286 -112.01834 8660 ft 216 kts 79°
2026-05-07 00:12 40.54697 -111.99978 8492 ft 210 kts 59°
2026-05-07 00:12 40.55592 -111.98498 8317 ft 207 kts 38°
2026-05-07 00:12 40.56817 -111.97575 8127 ft 202 kts 16°
2026-05-07 00:12 40.58187 -111.97308 7949 ft 200 kts 356°
2026-05-07 00:13 40.59581 -111.97469 7715 ft 201 kts 353°
2026-05-07 00:13 40.60967 -111.97633 7450 ft 201 kts 353°
2026-05-07 00:13 40.62359 -111.97794 7199 ft 196 kts 353°
2026-05-07 00:13 40.63662 -111.97942 6949 ft 184 kts 353°
2026-05-07 00:14 40.64937 -111.98087 6701 ft 184 kts 354°
2026-05-07 00:14 40.66214 -111.98232 6467 ft 183 kts 353°
2026-05-07 00:14 40.67481 -111.98380 6227 ft 179 kts 354°
2026-05-07 00:14 40.68684 -111.98521 6036 ft 167 kts 354°
2026-05-07 00:15 40.69792 -111.98651 6023 ft 155 kts 353°
2026-05-07 00:15 40.70853 -111.98770 5874 ft 152 kts 353°
2026-05-07 00:15 40.71905 -111.98862 5634 ft 151 kts 353°
2026-05-07 00:15 40.72936 -111.99010 5349 ft 148 kts 350°
2026-05-07 00:16 40.73949 -111.99130 5046 ft 144 kts 356°
2026-05-07 00:16 40.74967 -111.99249 4818 ft 146 kts 356°
2026-05-07 00:16 40.75984 -111.99375 4592 ft 145 kts 356°
2026-05-07 00:16 40.76997 -111.99486 4415 ft 147 kts 354°
2026-05-07 00:17 40.78011 -111.99604 4284 ft 137 kts 354°
2026-05-07 00:17 40.78882 -111.99711 4234 ft 107 kts 355°
2026-05-07 00:17 40.79458 -111.99778 4230 ft 62 kts 355°
2026-05-07 00:17 40.79767 -111.99748 4231 ft 20 kts 27°
2026-05-07 00:18 40.79862 -111.99627 4231 ft 18 kts 68°
2026-05-07 00:18 40.79816 -111.99506 4230 ft 16 kts 163°
2026-05-07 00:18 40.79710 -111.99491 4231 ft 15 kts 175°
2026-05-07 00:18 40.79600 -111.99478 4231 ft 20 kts 175°
2026-05-07 00:19 40.79446 -111.99460 4231 ft 22 kts 175°
2026-05-07 00:19 40.79294 -111.99443 4231 ft 21 kts 175°
2026-05-07 00:19 40.79150 -111.99426 4231 ft 20 kts 175°
2026-05-07 00:19 40.79013 -111.99410 4231 ft 19 kts 175°
2026-05-07 00:20 40.78883 -111.99395 4231 ft 18 kts 175°
2026-05-07 00:20 40.78760 -111.99380 4231 ft 17 kts 175°
2026-05-07 00:20 40.78644 -111.99367 4231 ft 16 kts 175°
2026-05-07 00:20 40.78535 -111.99354 4231 ft 15 kts 175°
2026-05-07 00:21 40.78434 -111.99339 4231 ft 14 kts 162°
2026-05-07 00:21 40.78410 -111.99237 4231 ft 12 kts 90°
2026-05-07 00:21 40.78415 -111.99139 4231 ft 10 kts 85°
2026-05-07 00:21 40.78422 -111.99062 4231 ft 6 kts 77°
2026-05-07 00:22 40.78450 -111.99045 4230 ft 4 kts
2026-05-07 00:22 40.78472 -111.99048 4231 ft 2 kts 355°
2026-05-07 00:22 40.78476 -111.99048 4231 ft 0 kts 355°